Location: Carrer del Canonge
(41.4901°N, 2.2931°E)
Time: 14:27:09
(UTC+00:00)

Resurs 01 Rocket - Pass Details

Date: 18 September 2020
Orbit: 633 x 645 km, 98.0° (Epoch: 29 October)

Event Time Altitude Azimuth Distance (km) Brightness Sun altitude
Exits shadow 20:56:48 30° 316° (NW) 1,159 3.4 -32.7°
Drops below altitude 10° 20:59:19 10° 335° (NNW) 2,050 4.9 -33.1°
Sets 21:01:36 0° 342° (NNW) 2,964 5.8 -33.4°
